Wind_Speed
28 25 26 22 20 19 17 16 14 14 16 14 11 8 9 9 11 9 8 4 5 5
28 28 27 24 20 20 16 14 15 14 15 15 14 12 11 12 9 9 8 8 8 5
30 30 28 26 22 19 17 17 21 18 19 17 17 15 15 13 12 11 9 9 9 7
31 32 31 28 23 22 17 17 18 18 18 20 18 15 17 15 14 14 13 14 13 11
29 32 32 31 28 23 23 22 23 20 19 15 17 14 15 18 16 14 14 12 16 16
30 31 34 34 33 28 26 24 23 23 22 21 20 21 20 18 17 17 17 16 15 14
25 27 30 31 33 32 31 29 27 24 25 21 21 21 21 20 20 20 20 19 18 17
27 23 24 26 27 26 27 28 29 27 26 24 25 25 24 23 21 21 20 20 21 18
31 28 23 20 24 24 25 24 25 25 28 27 25 23 21 20 22 21 22 22 20 20
32 31 23 21 20 23 25 25 24 26 26 25 26 24 22 22 22 22 22 23 23 23
31 30 29 24 21 21 23 26 25 25 28 29 26 24 24 23 24 23 23 24 25 26
31 29 29 26 23 23 24 22 23 22 24 25 24 25 24 26 26 27 27 26 26 27
36 34 28 28 25 23 24 24 21 24 28 28 24 26 26 26 25 24 24 24 25 27
31 31 31 26 25 25 24 24 23 21 19 21 21 22 21 21 23 23 22 23 22 22
Wind_Direction
215 216 214 219 219 217 221 228 222 226 222 218 217 230 233 229 227 243 218 238 226 217
215 216 214 209 218 214 214 213 215 225 223 227 228 228 233 232 225 231 238 253 236 242
215 214 213 217 220 221 232 222 227 230 237 238 238 247 242 240 236 235 249 250 249 249
215 218 217 222 224 224 220 220 222 231 242 245 243 261 247 243 248 250 252 247 254 252
219 219 222 225 228 236 234 232 234 240 244 242 246 242 256 251 252 258 253 252 247 253
222 224 229 234 236 238 240 244 246 238 240 240 243 250 257 255 258 261 261 259 258 255
220 226 232 237 242 247 249 250 242 240 243 248 249 252 257 263 267 266 261 260 263 263
223 225 231 238 242 245 248 249 243 242 246 250 253 259 266 265 264 267 270 265 262 260
224 229 228 234 239 241 241 244 246 245 245 249 254 255 258 262 262 266 268 269 269 265
229 226 227 233 242 241 241 245 246 247 250 249 246 252 255 259 262 265 265 266 265 262
234 237 237 235 240 245 248 252 247 249 254 259 257 249 253 257 262 264 265 265 267 266
234 237 240 242 244 248 247 250 252 248 263 258 252 252 251 256 262 265 267 266 265 266
244 241 242 245 249 248 250 253 247 238 244 257 256 257 259 259 259 262 265 267 266 263
239 247 248 244 248 248 248 249 255 258 256 257 257 258 255 257 259 261 262 265 265 263
Height
1534 1537 1540 1544 1546 1549 1551 1554 1555 1557 1558 1560 1561 1561 1561 1561 1562 1562 1561 1561 1561 1561
1531 1534 1536 1541 1544 1547 1549 1551 1554 1556 1558 1559 1559 1560 1561 1561 1561 1561 1561 1561 1560 1560
1528 1532 1535 1539 1541 1544 1546 1549 1552 1554 1555 1557 1558 1558 1559 1560 1560 1559 1559 1560 1560 1559
1524 1529 1533 1535 1538 1541 1545 1547 1549 1551 1552 1554 1556 1555 1557 1558 1558 1558 1557 1558 1558 1559
1521 1525 1529 1532 1535 1538 1541 1544 1547 1549 1550 1551 1553 1554 1555 1555 1556 1555 1555 1555 1556 1556
1516 1520 1524 1528 1531 1535 1537 1540 1543 1544 1546 1548 1549 1551 1552 1553 1553 1554 1554 1554 1554 1555
1511 1515 1519 1523 1526 1530 1532 1535 1537 1539 1541 1543 1546 1548 1549 1550 1550 1550 1551 1551 1551 1551
1506 1510 1513 1517 1521 1525 1527 1530 1532 1534 1536 1538 1541 1543 1545 1546 1547 1548 1547 1548 1548 1548
1500 1505 1507 1510 1514 1518 1522 1524 1527 1529 1531 1533 1535 1538 1540 1542 1543 1545 1544 1543 1543 1543
1494 1500 1503 1505 1509 1511 1515 1519 1523 1525 1527 1528 1529 1532 1534 1536 1537 1538 1538 1538 1539 1539
1489 1494 1498 1501 1504 1506 1508 1513 1517 1519 1521 1521 1524 1526 1528 1529 1531 1532 1532 1532 1533 1533
1484 1487 1491 1495 1498 1500 1503 1507 1508 1512 1516 1517 1518 1520 1521 1522 1523 1524 1525 1525 1525 1525
1478 1481 1484 1488 1492 1496 1498 1501 1506 1510 1511 1510 1511 1511 1514 1515 1517 1517 1518 1518 1518 1518
1470 1475 1479 1482 1486 1489 1492 1495 1497 1500 1503 1504 1505 1506 1509 1509 1510 1511 1511 1511 1511 1511